[Date Prev][Date Next][Thread Prev][Thread Next] - [Date Index][Thread Index][Author Index]
2 Line ISS Keps 5-16
- Subject: [sarex] 2 Line ISS Keps 5-16
- From: "Dave Larsen PhD" <doc@xxxxxxxxxxx>
- Date: Sat, 16 Mar 2002 01:33:55 -0800
ISS
1 25544U 98067A 02075.20392632 .00059068 00000-0 78458-3 0 1929
2 25544 51.6380 160.0650 0003919 269.4955 130.3769 15.57629025189532
----
Via the sarex mailing list at AMSAT.ORG courtesy of AMSAT-NA.
To unsubscribe, send "unsubscribe sarex" to Majordomo@amsat.org
AMSAT Home